Regional Weather Roundup
Issued by NWS

Home | Current Version | Previous Version | Graphics & Text | Print | Product List | Glossary On
Versions: 1 2 3 4 5 6 7 8 9 10 11 12 13 14 15 16 17 18 19 20 21 22 23 24 25 26 27 28 29 30 31 32 33 34 35 36 37 38 39 40 41 42 43 44 45 46 47 48 49 50
000
ASUS43 KLSX 291007
RWRMO

WEATHER SUMMARY FOR MISSOURI
NATIONAL WEATHER SERVICE SPRINGFIELD MO
500 AM CDT WED JUL 29 2015

NOTE: "FAIR" INDICATES FEW OR NO CLOUDS BELOW 12,000 FEET WITH NO
       SIGNIFICANT WEATHER AND/OR OBSTRUCTIONS TO VISIBILITY.
       CURRENT SKY AND/OR WEATHER CONDITIONS ARE NOT AVAILABLE FOR
       CHILLICOTHE AND FARMINGTON.

MOZ001>031-035>038-043-044-053-054-291100-
...NORTHERN AND WESTERN MISSOURI...

CITY           SKY/WX    TMP DP  RH WIND       PRES   REMARKS
KANSAS CTY INT RAIN      71  69  93 SE3       30.07R FOG
KANSAS C DTWN  RAIN      73  71  93 SE8       30.09R FOG
LEE`S SUMMIT   CLOUDY    72  69  90 CALM      30.10R
ST JOSEPH      LGT RAIN  72  70  93 E7        30.06F
CHILLICOTHE      N/A     72  71  97 CALM      30.08R
KIRKSVILLE     RAIN      71  68  90 SE6       30.04F FOG

$$
MOZ066>068-077>081-088>096-101>105-291100-
...SOUTHWEST MISSOURI...

CITY           SKY/WX    TMP DP  RH WIND       PRES   REMARKS
SPRINGFIELD    CLEAR     75  72  90 SW5       30.04R
JOPLIN         CLEAR     74  72  93 CALM      30.03R

$$
MOZ032>034-039>042-045>050-055>058-069>072-291100-
...CENTRAL MISSOURI...

CITY           SKY/WX    TMP DP  RH WIND       PRES   REMARKS
COLUMBIA       LGT RAIN  75  69  81 NW8       30.05R
JEFFERSON CITY PTCLDY    79  73  82 NW10G22   30.02R
ROLLA          CLEAR     76  74  93 SW6       30.02R
SEDALIA        MOCLDY    74  69  85 NW8       30.09R
WHITEMAN AFB   CLOUDY    72  69  88 N7        30.06S
WARRENSBURG    MOCLDY    70  68  94 CALM      30.08F
OSAGE BEACH    CLEAR     75  72  88 CALM      30.04R

$$
MOZ051-052-059>065-291100-
...EAST CENTRAL MISSOURI...

CITY           SKY/WX    TMP DP  RH WIND       PRES   REMARKS
ST LOUIS INTL  PTCLDY    84  76  76 W7        29.99R HX  93
SPIRIT OF STL  CLEAR     79  77  94 W6        29.98R
ST CHARLES     PTCLDY    79  78  97 CALM      29.97R

$$
MOZ072>076-082>087-097>100-106>115-291100-
...SOUTH CENTRAL AND SOUTHEAST MISSOURI...

CITY           SKY/WX    TMP DP  RH WIND       PRES   REMARKS
CAPE GIRARDEAU CLEAR     76  75  97 CALM      29.98R
FARMINGTON     PTCLDY    75  73  94 CALM      30.06R
POPLAR BLUFF   CLEAR     78  77  96 CALM      29.97R FOG
WEST PLAINS    CLEAR     77  73  87 SW3       30.06R

$$


USA.gov is the U.S. government's official web portal to all federal, state and local government web resources and services.